Regional Weather Roundup
Issued by NWS

Home | Current Version | Previous Version | Graphics & Text | Print | Product List | Glossary On
Versions: 1 2 3 4 5 6 7 8 9 10 11 12 13 14 15 16 17 18 19 20 21 22 23 24 25 26 27 28 29 30 31 32 33 34 35 36 37 38 39 40 41 42 43 44 45 46 47 48 49 50
000
ASUS43 KIND 031259
RWRIN

WEATHER ROUNDUP FOR INDIANA
NATIONAL WEATHER SERVICE INDIANAPOLIS IN
900 AM EDT THU SEP 03 2015

NOTE: "FAIR" INDICATES FEW OR NO CLOUDS BELOW 12,000 FEET WITH NO
SIGNIFICANT WEATHER AND/OR OBSTRUCTIONS TO VISIBILITY.

* - STATION DOES NOT REPORT WEATHER SUCH AS PRECIPITATION OR FOG.

+ - STATION NOT QUALITY CONTROLLED BY THE NATIONAL WEATHER SERVICE.
    USE DATA WITH CAUTION...ESPECIALLY DEWPOINT AND RELATIVE
    HUMIDITY OBSERVATIONS.

INZ001>003-010>013-019-020-031400-
NORTHWEST INDIANA

CITY           SKY/WX    TMP DP  RH WIND       PRES   REMARKS
GARY /AIRPORT/ SUNNY     75  66  73 S5        29.98S
KNOX *+        SUNNY     72  70  94 SW6       29.98F
MONTICELLO +   SUNNY     72  71  95 S6        30.00S
RENSSELAER +   SUNNY     72  72 100 SW5       30.00S

$$

LMZ046-743>745-031400-
SOUTHERN LAKE MICHIGAN

STATION/POSITION TIME  TEMP    WIND        PRES    WAVE
                       AIR SEA DIR/SP/G            HT
                 (UTC) (F)     (DEG/KT/KT) (MB)    (FT)
BURNS HARBOR     1200   74     190/  8/ 10 1015.2S
MICHIGAN CITY    1200   74     180/ 10/ 11   N/A
5NW MICH CITY    1200   74 73  220/  8/ 10   N/A     1

$$

INZ004-005-014>016-021>024-031400-
NORTH CENTRAL INDIANA

CITY           SKY/WX    TMP DP  RH WIND       PRES   REMARKS
ELKHART        SUNNY     73  70  88 SW3       30.00R
GOSHEN         SUNNY     74  69  85 SW6       30.00R
PERU/GRISSOM   SUNNY     74  69  83 SW7       30.01F
SOUTH BEND     SUNNY     74  68  81 SW6       29.99S

$$

INZ006>009-017-018-025>027-031400-
NORTHEAST INDIANA

CITY           SKY/WX    TMP DP  RH WIND       PRES   REMARKS
ANGOLA *+      SUNNY     75  66  73 SW3       30.00S
FORT WAYNE     MOSUNNY   74  69  85 SW8       30.02S

$$

INZ028-029-035-036-043>045-051>053-031400-
WEST CENTRAL INDIANA

CITY           SKY/WX    TMP DP  RH WIND       PRES   REMARKS
CRAWFORDSVL +  SUNNY     71  68  90 CALM      30.04F
GREENCASTLE +  SUNNY     70  66  88 CALM      30.06S FOG
LAFAYETTE      SUNNY     72  68  87 CALM      30.01F
TERRE HAUTE    SUNNY     72  68  87 CALM      30.04S

$$

INZ030>032-037>040-046>048-054>057-064-065-031400-
CENTRAL INDIANA

CITY           SKY/WX    TMP DP  RH WIND       PRES   REMARKS
ANDERSON       MOSUNNY   72  68  88 CALM      30.06
FRANKFORT +    SUNNY    N/A N/A N/A S3        30.05F
GREENWOOD *+   SUNNY     73  68  83 CALM      30.05S
INDIANAPOLIS   SUNNY     73  68  84 W6        30.04S FOG
-EAGLE CREEK   SUNNY     73  69  87 CALM      30.04S
KOKOMO *+      SUNNY     75  66  73 SW6       30.03S
MT COMFORT *+  SUNNY     73 N/A N/A CALM      30.05S
SHELBYVILLE    SUNNY     73  69  87 S5        30.05R FOG
ZIONSVILLE +   SUNNY     72  69  88 CALM      30.05F

$$

INZ033-034-041-042-049-050-058-059-031400-
EAST CENTRAL INDIANA

CITY           SKY/WX    TMP DP  RH WIND       PRES   REMARKS
MUNCIE         SUNNY     73  68  84 SW7       30.04S

$$

INZ060-061-067>069-081>083-085>088-031400-
SOUTHWEST INDIANA

CITY           SKY/WX    TMP DP  RH WIND       PRES   REMARKS
EVANSVILLE     SUNNY     73  70  90 CALM      30.05R FOG
HUNTINGBURG *+ SUNNY     72  66  83 CALM      30.06R

$$

INZ062-063-066-070>080-084-089>092-031400-
SOUTH CENTRAL AND SOUTHEAST INDIANA

CITY           SKY/WX    TMP DP  RH WIND       PRES   REMARKS
BLOOMINGTON    SUNNY     73  69  87 CALM      30.06R
SEYMOUR +      SUNNY     72  72 100 CALM      30.05R FOG

$$



USA.gov is the U.S. government's official web portal to all federal, state and local government web resources and services.